This demonstration page uses our WeatherBlox Daily Observations layout. Learn more.

Left ArrowRight Arrow

Hourly Observations for July 3, 2016

Temp ( °F °C ) Dew Point ( °F °C ) Humidity (%) Winds ( mph kmh ) Pressure ( in mb ) Visibility ( mi km ) Precip ( " mm )
12:53 am 00:53 Clear 81 27.2 63 17.2 54 54 Calm 29.99 1016 10 16 0.00 0.00
1:53 am 01:53 Clear 77 25 65 18.3 66 66 Calm 29.98 1015 10 16 0.00 0.00
2:53 am 02:53 Clear 74 23.3 65 18.3 74 74 Calm 29.98 1015 10 16 0.00 0.00
3:53 am 03:53 Clear 73 22.8 65 18.3 76 76 Calm 29.98 1015 10 16 0.00 0.00
4:53 am 04:53 Clear 75 23.9 64 17.8 69 69 Calm 29.99 1016 10 16 0.00 0.00
5:53 am 05:53 Clear 71 21.7 65 18.3 81 81 Calm 30.00 1016 10 16 0.00 0.00
6:53 am 06:53 Sunny 72 22.2 65 18.3 79 79 Calm 30.02 1017 10 16 0.00 0.00
7:53 am 07:53 Sunny 74 23.3 66 18.9 76 76 Calm 30.04 1017 10 16 0.00 0.00
8:53 am 08:53 Sunny 79 26.1 66 18.9 65 65 Calm 30.04 1017 10 16 0.00 0.00
9:53 am 09:53 Sunny 85 29.4 66 18.9 53 53 Calm 30.05 1018 10 16 0.00 0.00
10:53 am 10:53 Sunny 89 31.7 65 18.3 45 45 VRB 5 7 30.05 1018 10 16 0.00 0.00
11:53 am 11:53 Sunny 92 33.3 64 17.8 40 40 WSW 7 11 30.04 1017 10 16 0.00 0.00
12:53 pm 12:53 Sunny 93 33.9 64 17.8 38 38 W 6 9 30.03 1017 10 16 0.00 0.00
1:53 pm 13:53 Mostly Cloudy 94 34.4 63 17.2 36 36 Calm 30.02 1017 10 16 0.00 0.00
2:53 pm 14:53 Partly Cloudy 95 35 64 17.8 36 36 WSW 9 15 30.01 1016 10 16 0.00 0.00
3:53 pm 15:53 Sunny 96 35.6 63 17.2 34 34 SSW 7 11 29.99 1016 10 16 0.00 0.00
4:53 pm 16:53 Sunny 96 35.6 63 17.2 34 34 WSW 6 9 29.96 1015 10 16 0.00 0.00
5:53 pm 17:53 Partly Cloudy 96 35.6 61 16.1 31 31 WSW 7 11 29.96 1014 10 16 0.00 0.00
6:53 pm 18:53 Cloudy with Heavy Rain 82 27.8 70 21.1 67 67 W 17 28 30.01 1016 2 3 0.12 3.05
7:00 pm 19:00 Cloudy with Rain 81 27 70 21 70 70 WNW 9 15 30.00 1016 7 11 0.00 0.00
7:25 pm 19:25 Cloudy with Nearby Thunderstorms 79 26.1 73 22.8 82 82 ENE 8 13 30.00 1016 7 11 0.03 0.76
7:49 pm 19:49 Mostly Cloudy 79 26 73 23 84 84 N 5 7 30.00 1016 7 11 0.00 0.00
7:53 pm 19:53 Mostly Cloudy 77 25 73 22.8 88 88 Calm 30.00 1016 7 11 0.03 0.76
8:53 pm 20:53 Clear 77 25 74 23.3 90 90 Calm 29.99 1016 9 14 0.00 0.00
9:53 pm 21:53 Clear 77 25 74 23.3 90 90 NE 3 6 30.00 1016 9 14 0.00 0.03
10:53 pm 22:53 Clear 76 24.4 73 22.8 91 91 Calm 30.01 1016 7 11 0.00 0.00
11:53 pm 23:53 Clear 76 24.4 73 22.8 91 91 Calm 30.01 1016 8 13 0.00 0.00

Powered by AerisWeather